Regional Weather Roundup
Issued by NWS Wakefield, VA

Home | Current Version | Previous Version | Graphics & Text | Print | Product List | Glossary On
Versions: 1 2 3 4 5 6 7 8 9 10 11 12 13 14 15 16 17 18 19 20 21 22 23 24 25 26 27
000
ASUS41 KAKQ 042215
RWRAKQ

REGIONAL WEATHER ROUNDUP
NATIONAL WEATHER SERVICE WAKEFIELD VA
500 PM EST SUN DEC 04 2016

Note: "fair" indicates few or no clouds below 12,000 feet with no
significant weather and/or obstructions to visibility. * = Denotes
station may not report precipitation (e.g., rain,snow,etc.),
thunder or fog.

VAZ042-051-052>054-056-042300-
NORTHERN VIRGINIA

CITY           SKY/WX    TMP DP  RH WIND       PRES   REMARKS
WASH NATIONAL  CLOUDY    45  30  55 S7        30.20F
DULLES         CLOUDY    42  27  55 S5        30.18F
FORT BELVOIR   CLOUDY    44  28  54 CALM      30.20F
QUANTICO       CLOUDY    45  31  58 S8        30.21F
FREDERICKSBRG* CLOUDY    44  33  64 S5        30.19F
STAFFORD*      CLOUDY    42  30  62 CALM      30.23F
WARRENTON      CLOUDY    43  26  50 CALM      30.17F
CULPEPER*      CLOUDY    43  32  65 CALM      30.19F
MANASSAS*      CLEAR     43  30  61 CALM      30.19F
LEESBURG*      CLOUDY    45  32  61 MISG      30.18F
WINCHESTER     CLOUDY    37  28  70 CALM      30.15F
FRONT ROYAL*   FAIR      39  30  70 CALM      30.14F
LURAY*         CLOUDY    41  32  70 CALM      30.14F
$$

VAZ048-049-060>072-079>083-042300-
CENTRAL AND SOUTH CENTRAL VIRGINIA

CITY           SKY/WX    TMP DP  RH WIND       PRES   REMARKS
RICHMOND       CLOUDY    42  32  67 S5        30.20S
CHESTERFIELD*  CLOUDY    43  19  39 S3        30.21S
PETERSBURG*    CLOUDY    41  33  72 CALM      30.21S
HANOVER        CLOUDY    42  31  64 CALM      30.22R
TAPPAHANNOCK*  CLOUDY    43  31  62 CALM      30.21F
QUINTON*       CLOUDY    43  32  65 CALM      30.20S
CHARLOTTSVILLE CLOUDY    43  28  55 S6        30.17F
GORDONSVILLE*  CLOUDY    42  30  62 S3        30.18S
ORANGE*          N/A     43  30  61 CALM      30.21R
LOUISA*        CLOUDY    45  34  65 CALM      30.18S
BUMPASS*       CLOUDY    42  31  67 CALM      30.19F
FARMVILLE*     DRIZZLE   42  36  80 S5        30.19F
CREWE*         CLOUDY    41  36  83 CALM      30.19F
FORT PICKETT*  CLOUDY    40  32  71 CALM      30.20S
CHASE CITY*    CLOUDY    43  33  68 CALM      30.19F
CLARKSVILLE*   CLOUDY    41  36  81 CALM      30.19F
SOUTH HILL*    CLOUDY    42  35  75 CALM      30.27R
LAWRENCEVILLE* CLOUDY    43  34  72 CALM      30.21R
EMPORIA*       CLOUDY    43  36  75 CALM      30.23R
$$

VAZ088>098-042300-
SOUTHEAST VIRGINIA

CITY           SKY/WX    TMP DP  RH WIND       PRES   REMARKS
NORFOLK        CLOUDY    45  35  68 E3        30.20F
VIRGINIA BEACH CLOUDY    45  36  70 CALM      30.20F
NORFOLK NAVAL  MOCLDY    44  36  73 CALM      30.22F
WEST POINT*    CLOUDY    43  33  69 CALM      30.23R
SALUDA*        FAIR      43  37  81 CALM      30.21S
NEWPORT NEWS   CLOUDY    45  32  60 CALM      30.21F
LANGLEY AFB    CLOUDY    45  35  66 E5        30.20F
FORT EUSTIS    CLOUDY    44  34  68 CALM      30.18F
WILLIAMSBURG*  CLOUDY    45  34  65 CALM      30.22R
HR EXEC AP*    FAIR      45  34  65 CALM      30.19F
FRANKLIN*      CLOUDY    44  33  67 CALM      30.22S
US460-WAKEFLD  CLOUDY    43  34  70 CALM      30.22S
$$

VAZ020-022-025-037-045-042300-
WEST CENTRAL AND SOUTHWEST VIRGINIA

CITY           SKY/WX    TMP DP  RH WIND       PRES   REMARKS
STAUNTON*      CLOUDY    39  29  68 CALM      30.15F
WAYNESBORO*    CLOUDY    38  27  65 SE7       30.13F
HOT SPRINGS VA FOG       28  28 100 SE9       30.02S VSB 3/4
LYNCHBURG      LGT RAIN  38  34  85 S3        30.18F
DANVILLE       LGT RAIN  40  40 100 CALM      30.18F FOG
SOUTH BOSTON*  CLOUDY    42  40  93 CALM      30.19F
MARTINSVILLE   RAIN      38  36  94 CALM      30.19F
ROANOKE        LGT RAIN  37  35  92 SE8       30.17F
BLACKSBURG     MIX PCPN  34  34  98 E6        30.13F
DUBLIN*        MIX PCPN  37  36  96 E3        30.10F
MARION*        LGT RAIN  39  38  96 NE9       30.06F
HILLSVILLE*    MIX PCPN  32  32 100 CALM      30.07S
RICHLANDS*     DRIZZLE   42  41  99 SE7       29.97F
WISE*          LGT RAIN  43  43 100 S12G18    29.95F
ABINGDON*      DRIZZLE   44  44  98 E9        30.00S
$$

MDZ021>025-VAZ099-100-042300-
SOUTHERN MARYLAND AND THE DELMARVA PENINSULA

CITY           SKY/WX    TMP DP  RH WIND       PRES   REMARKS
PATUXENT RIVER CLOUDY    43  32  65 S3        30.21F
BAY BRIDGE APT CLOUDY    43  30  61 SE3       30.21S
LEONARDTOWN    CLOUDY    41  32  70 CALM      30.21F
DOVER          CLOUDY    44  32  61 CALM      30.20S
GEORGETOWN     CLOUDY    46  30  53 CALM      30.21F
EASTON         CLOUDY    43  30  61 CALM      30.25S
CAMBRIDGE      CLOUDY    41  32  70 CALM      30.21S
SALISBURY      CLOUDY    42  34  73 S3        30.21F
OCEAN CITY     MOCLDY    43  33  68 CALM      30.22F
WALLOPS ISLAND CLOUDY    43  35  73 CALM      30.23F
ACCOMACK*      CLOUDY    44  36  74 CALM      30.22S
$$

NCZ012>017-030>032-042300-
NORTH CENTRAL AND EASTERN NORTH CAROLINA

CITY           SKY/WX    TMP DP  RH WIND       PRES   REMARKS
ROANOKE RAPIDS CLOUDY    45  36  70 CALM      30.21S
RALEIGH        LGT RAIN  44  39  82 CALM      30.20F
ELIZABETH CITY CLOUDY    47  35  63 E3        30.21F
AHOSKIE*       CLOUDY    45  35  69 CALM      30.21F
EDENTON*       CLOUDY    49  39  70 CALM      30.22F
CURRITUCK*     CLOUDY    47  37  67 CALM      30.22F
KILL DEVIL HLS CLOUDY    48  40  76 N3        30.21F
MANTEO         CLOUDY    48  37  67 NE6       30.23F
CAPE HATTERAS  CLOUDY    50  40  68 NE5       30.22F
TARBORO*       NOT AVBL
GOLDSBORO      LGT RAIN  46  41  81 CALM      30.19F
WASHINGTON     CLOUDY    48  39  72 CALM      30.21F
GREENVILLE     CLOUDY    48  36  61 CALM      30.22F
NEW BERN       CLOUDY    49  40  71 NE3       30.22F
WILMINGTON     CLOUDY    46  43  89 NE7       30.18F
$$

VAZ048-042300-
ELSEWHERE

CITY           SKY/WX    TMP DP  RH WIND       PRES   REMARKS
HARRISBURG PA  CLOUDY    43  32  65 S5        30.16F
BALTIMORE      CLOUDY    42  32  67 SE3       30.19F
ANNAPOLIS      CLOUDY    46  34  62 SE8       30.20F
ANDREWS AFB    CLOUDY    43  29  57 S2        30.18F
PHILADELPHIA   CLOUDY    47  24  40 VRB5      30.20S
HENDERSON NC   DRIZZLE   42  31  67 CALM      30.20S
GREENSBORO     RAIN      41  40  96 S5        30.15F FOG
ROCKY MOUNT    CLOUDY    47  37  68 CALM      30.21F
$$

VAZ100-042300-
MARINE

STATION/POSITION TIME  TEMP    WIND        PRES    WAVE   SWELL
                       AIR SEA DIR/SP/G            HT/PER HT/PER
                 (UTC) (F)     (DEG/KT/KT) (MB)    (FT/S) (FT/S)
BRANDYWINE LGT   2136   45     340/  2/  4   N/A
CAPE MAY NJ      2136   45 48  300/  4/  5 1022.7F
LEWES DE         2136   44 48  210/  2/  2 1023.1F
OCEAN-CITY-INLET 2136   46 51  290/  4/  5 1023.5F
WACHAPREAGUE VA  2136   45 48     CALM     1022.9F
THOMAS POINT MD  2200   44 49  120/  9/  9   N/A
GOOSES REEF MD   2200   45 49  140/  6/  8 1023.5    0
COVE POINT MD    2136   44     180/  4/  4 1023.7R
SOLOMONS ISLAND  2136   45 51  190/  2/  5   N/A
BISHOPS HEAD MD  2136   45 45  190/  2/  3 1023.4F
PINEY POINT MD   2142          150/  4/  5   N/A
POTOMAC MD       2150   45     160/  2/  4 1022.2F
CAMBRIDGE MD     2136   45 47  200/  1/  2 1022.5F
LEWISETTA VA     2136   45 48  180/  3/  3 1022.9R
RAPPAHANNOCK LGT 2142          140/  2/  4 1023.6F
STINGRAY PT      2150   45     170/  4/  4 1023.4F
YORK RVR RNG VA  2136   45     160/  4/  5 1022.3F
YORKTOWN VA      2136   45 52  150/  3/  5 1022.3F
JAMESTOWN VA     2150   44     140/  4/  6   N/A
DOMINION TERM VA 2136   46     160/  3/  4 1022.7F
KIPTOPEKE VA     2142      51  110/  2/  3   N/A
CHES BAY BRIDGE  2142   45 54  100/  3/  4 1022.7F
CAPE HENRY VA    2142   45     160/  2/  3   N/A
WILLOUBY STN VA  2142   46     150/  4/  4 1023.5F
S CRANEY ISL VA  2136   46     110/  2/  3 1022.6F
CAPE HENRY BUOY  2142      56                N/A     2/ 6
1ST LANDING BUOY 2200   46 53              1022.9    1/ 3
CAPE CHARLES BUO 2156      55                N/A     2/ 6
OFFSHORE WE BUOY 2151      56                N/A     3/ 6
64NM E OF VA BCH 2150   49 60  350/  8/ 10 1023.4F   4/ 6   3/ 6
DUCK PIER NC     2142   48 55   30/  5/  7 1022.9F
44100 DUCK FRF   2105      56                N/A     3/ 6
OREGON INLET NC  2142   49 54  360/  5/  7 1023.4F
HATTERAS NC      2142   50 58   30/  7/  9 1023.0F
DIAMOND SHLS NC  2150   55 75   10/ 10/ 14 1023.3F   4/ 8   5/ 8
CAPE LOOKOUT NC  2100   50      30/ 10/ 12 1022.8S
$$




USA.gov is the U.S. government's official web portal to all federal, state and local government web resources and services.